• In Deutschland
  • Länderverzeichnis
  • Für 7 Tage
  • Wassertemperatur
  • Satellitenkarten
  • Wetterkarte
  • Widgets
  • user-avatar
    Anmelden

    Stündliche Wetter Saidpur

    Heute, 20 Januar, Samstag

    Zeit Temperatur Niederschläge Wind Luftdruck Luftfeuchtigkeit
    00:00 +17°C° 0 mm 2 m/S 758 mmHg 58%
    01:00 +17°C° 0 mm 2 m/S 758 mmHg 60%
    02:00 +16°C° 0 mm 2 m/S 757 mmHg 62%
    03:00 +16°C° 0 mm 2 m/S 757 mmHg 65%
    04:00 +15°C° 0 mm 2 m/S 757 mmHg 66%
    05:00 +15°C° 0 mm 2 m/S 757 mmHg 68%
    06:00 +15°C° 0 mm 2 m/S 757 mmHg 69%
    07:00 +16°C° 0 mm 2 m/S 758 mmHg 65%
    08:00 +17°C° 0 mm 2 m/S 758 mmHg 61%
    09:00 +18°C° 0 mm 2 m/S 758 mmHg 57%
    10:00 +20°C° 0 mm 2 m/S 758 mmHg 51%
    11:00 +21°C° 0 mm 2 m/S 758 mmHg 46%
    12:00 +24°C° 0 mm 2 m/S 758 mmHg 40%
    13:00 +25°C° 0 mm 2 m/S 757 mmHg 38%
    14:00 +25°C° 0 mm 2 m/S 757 mmHg 36%
    15:00 +26°C° 0 mm 2 m/S 756 mmHg 33%
    16:00 +25°C° 0 mm 2 m/S 756 mmHg 37%
    17:00 +24°C° 0 mm 2 m/S 756 mmHg 40%
    18:00 +23°C° 0 mm 2 m/S 756 mmHg 43%
    19:00 +21°C° 0 mm 2 m/S 756 mmHg 45%
    20:00 +20°C° 0 mm 2 m/S 757 mmHg 48%
    21:00 +20°C° 0 mm 2 m/S 757 mmHg 50%
    22:00 +19°C° 0 mm 2 m/S 757 mmHg 52%
    23:00 +19°C° 0 mm 2 m/S 757 mmHg 54%

    Morgen, 21 Januar, Sonntag

    Zeit Temperatur Niederschläge Wind Luftdruck Luftfeuchtigkeit
    00:00 +18°C° 0 mm 2 m/S 757 mmHg 55%
    01:00 +18°C° 0 mm 2 m/S 757 mmHg 57%
    02:00 +17°C° 0 mm 2 m/S 757 mmHg 58%
    03:00 +17°C° 0 mm 2 m/S 757 mmHg 60%
    04:00 +16°C° 0 mm 1 m/S 757 mmHg 62%
    05:00 +16°C° 0 mm 1 m/S 757 mmHg 63%
    06:00 +16°C° 0 mm 1 m/S 757 mmHg 65%
    07:00 +18°C° 0 mm 1 m/S 758 mmHg 61%
    08:00 +19°C° 0 mm 1 m/S 758 mmHg 57%
    09:00 +21°C° 0 mm 1 m/S 759 mmHg 53%
    10:00 +22°C° 0 mm 1 m/S 759 mmHg 48%
    11:00 +24°C° 0 mm 1 m/S 758 mmHg 42%
    12:00 +26°C° 0 mm 1 m/S 758 mmHg 36%
    13:00 +26°C° 0 mm 2 m/S 757 mmHg 34%
    14:00 +27°C° 0 mm 2 m/S 756 mmHg 31%
    15:00 +27°C° 0 mm 2 m/S 755 mmHg 29%
    16:00 +26°C° 0 mm 2 m/S 755 mmHg 31%
    17:00 +25°C° 0 mm 2 m/S 755 mmHg 34%
    18:00 +24°C° 0 mm 2 m/S 755 mmHg 36%
    19:00 +23°C° 0 mm 2 m/S 756 mmHg 38%
    20:00 +21°C° 0 mm 2 m/S 756 mmHg 39%
    21:00 +20°C° 0 mm 3 m/S 757 mmHg 41%
    22:00 +20°C° 0 mm 3 m/S 756 mmHg 42%
    23:00 +19°C° 0 mm 3 m/S 756 mmHg 44%

    übermorgen, 22 Januar, Montag

    Zeit Temperatur Niederschläge Wind Luftdruck Luftfeuchtigkeit
    00:00 +18°C° 0 mm 2 m/S 756 mmHg 45%
    01:00 +18°C° 0 mm 2 m/S 756 mmHg 47%
    02:00 +17°C° 0 mm 2 m/S 756 mmHg 48%
    03:00 +17°C° 0 mm 2 m/S 755 mmHg 50%
    04:00 +17°C° 0 mm 2 m/S 755 mmHg 51%
    05:00 +16°C° 0 mm 2 m/S 756 mmHg 53%
    06:00 +16°C° 0 mm 2 m/S 756 mmHg 54%
    07:00 +17°C° 0 mm 2 m/S 756 mmHg 51%
    08:00 +18°C° 0 mm 2 m/S 757 mmHg 48%
    09:00 +19°C° 0 mm 2 m/S 758 mmHg 45%
    10:00 +21°C° 0 mm 2 m/S 757 mmHg 41%
    11:00 +24°C° 0 mm 2 m/S 757 mmHg 37%
    12:00 +26°C° 0 mm 2 m/S 757 mmHg 33%
    13:00 +26°C° 0 mm 2 m/S 756 mmHg 32%
    14:00 +27°C° 0 mm 2 m/S 755 mmHg 31%
    15:00 +27°C° 0 mm 2 m/S 754 mmHg 29%
    16:00 +26°C° 0 mm 2 m/S 754 mmHg 32%
    17:00 +25°C° 0 mm 2 m/S 754 mmHg 34%
    18:00 +24°C° 0 mm 2 m/S 754 mmHg 36%
    19:00 +23°C° 0 mm 2 m/S 755 mmHg 37%
    20:00 +21°C° 0 mm 2 m/S 756 mmHg 39%
    21:00 +20°C° 0 mm 2 m/S 756 mmHg 40%
    22:00 +20°C° 0 mm 2 m/S 756 mmHg 41%
    23:00 +19°C° 0 mm 2 m/S 756 mmHg 42%

    23 Januar, Dienstag

    Zeit Temperatur Niederschläge Wind Luftdruck Luftfeuchtigkeit
    00:00 +19°C° 0 mm 2 m/S 756 mmHg 43%
    01:00 +18°C° 0 mm 2 m/S 755 mmHg 44%
    02:00 +18°C° 0 mm 2 m/S 755 mmHg 45%
    03:00 +17°C° 0 mm 2 m/S 755 mmHg 46%
    04:00 +17°C° 0 mm 2 m/S 755 mmHg 48%
    05:00 +16°C° 0 mm 2 m/S 755 mmHg 49%
    06:00 +16°C° 0 mm 2 m/S 755 mmHg 51%
    07:00 +18°C° 0 mm 1 m/S 756 mmHg 48%
    08:00 +19°C° 0 mm 1 m/S 756 mmHg 46%
    09:00 +21°C° 0 mm 1 m/S 757 mmHg 44%
    10:00 +23°C° 0 mm 1 m/S 757 mmHg 40%
    11:00 +24°C° 0 mm 1 m/S 756 mmHg 36%
    12:00 +26°C° 0 mm 1 m/S 756 mmHg 32%
    13:00 +27°C° 0 mm 1 m/S 755 mmHg 31%
    14:00 +27°C° 0 mm 1 m/S 754 mmHg 29%
    15:00 +28°C° 0 mm 1 m/S 753 mmHg 27%
    16:00 +27°C° 0 mm 1 m/S 753 mmHg 29%
    17:00 +25°C° 0 mm 1 m/S 753 mmHg 31%
    18:00 +24°C° 0 mm 1 m/S 753 mmHg 33%
    19:00 +24°C° 0 mm 1 m/S 753 mmHg 34%
    20:00 +23°C° 0 mm 1 m/S 754 mmHg 35%
    21:00 +22°C° 0 mm 1 m/S 754 mmHg 37%
    22:00 +22°C° 0 mm 1 m/S 754 mmHg 38%
    23:00 +21°C° 0 mm 1 m/S 754 mmHg 39%

    24 Januar, Mittwoch

    Zeit Temperatur Niederschläge Wind Luftdruck Luftfeuchtigkeit
    00:00 +21°C° 0 mm 1 m/S 754 mmHg 40%
    01:00 +20°C° 0 mm 1 m/S 754 mmHg 42%
    02:00 +20°C° 0 mm 1 m/S 754 mmHg 44%
    03:00 +19°C° 0 mm 1 m/S 753 mmHg 46%
    04:00 +19°C° 0 mm 1 m/S 753 mmHg 47%
    05:00 +16°C° 0 mm 0 m/S 753 mmHg 48%
    06:00 +16°C° 0 mm 0 m/S 753 mmHg 50%
    07:00 +19°C° 0 mm 1 m/S 754 mmHg 46%
    08:00 +21°C° 0 mm 1 m/S 755 mmHg 43%
    09:00 +22°C° 0 mm 1 m/S 755 mmHg 39%
    10:00 +24°C° 0 mm 1 m/S 755 mmHg 35%
    11:00 +26°C° 0 mm 1 m/S 755 mmHg 30%
    12:00 +28°C° 0 mm 2 m/S 755 mmHg 26%
    13:00 +28°C° 0 mm 1 m/S 754 mmHg 24%
    14:00 +29°C° 0 mm 1 m/S 753 mmHg 23%
    15:00 +29°C° 0 mm 1 m/S 752 mmHg 22%
    16:00 +28°C° 0 mm 1 m/S 752 mmHg 24%
    17:00 +27°C° 0 mm 1 m/S 752 mmHg 26%
    18:00 +27°C° 0 mm 1 m/S 752 mmHg 28%
    19:00 +26°C° 0 mm 1 m/S 752 mmHg 29%
    20:00 +26°C° 0 mm 2 m/S 753 mmHg 29%
    21:00 +25°C° 0 mm 2 m/S 753 mmHg 30%
    22:00 +25°C° 0 mm 2 m/S 753 mmHg 32%
    23:00 +24°C° 0 mm 2 m/S 753 mmHg 34%

    25 Januar, Donnerstag

    Zeit Temperatur Niederschläge Wind Luftdruck Luftfeuchtigkeit
    00:00 +24°C° 0 mm 2 m/S 753 mmHg 36%
    01:00 +23°C° 0 mm 2 m/S 753 mmHg 39%
    02:00 +21°C° 0 mm 2 m/S 753 mmHg 41%
    03:00 +20°C° 0 mm 2 m/S 753 mmHg 44%
    04:00 +20°C° 0 mm 2 m/S 753 mmHg 47%
    05:00 +19°C° 0 mm 2 m/S 753 mmHg 49%
    06:00 +18°C° 0 mm 2 m/S 753 mmHg 51%
    07:00 +19°C° 0 mm 2 m/S 754 mmHg 49%
    08:00 +20°C° 0 mm 2 m/S 754 mmHg 47%
    09:00 +21°C° 0 mm 2 m/S 755 mmHg 45%
    10:00 +24°C° 0 mm 2 m/S 755 mmHg 41%
    11:00 +25°C° 0 mm 2 m/S 755 mmHg 36%
    12:00 +27°C° 0 mm 2 m/S 755 mmHg 32%
    13:00 +27°C° 0 mm 2 m/S 754 mmHg 31%
    14:00 +28°C° 0 mm 2 m/S 754 mmHg 30%
    15:00 +29°C° 0 mm 1 m/S 753 mmHg 29%
    16:00 +27°C° 0 mm 2 m/S 753 mmHg 31%
    17:00 +26°C° 0 mm 2 m/S 753 mmHg 33%
    18:00 +25°C° 0 mm 2 m/S 753 mmHg 35%
    19:00 +24°C° 0 mm 2 m/S 754 mmHg 37%
    20:00 +22°C° 0 mm 3 m/S 754 mmHg 40%
    21:00 +22°C° 0 mm 3 m/S 755 mmHg 42%
    22:00 +21°C° 0 mm 3 m/S 755 mmHg 45%
    23:00 +20°C° 0 mm 3 m/S 755 mmHg 47%
    Mehr zeigen